Wind_Speed
16 16 17 17 18 19 19 20 20 21 22 23 23 24 25 26 28 29 30 30 31 32 33 34 35 36 36 36 36 37 38 39 40 39 38 39 39 38
17 18 18 19 19 20 20 21 22 22 23 23 24 24 25 26 27 28 29 30 31 32 34 35 36 37 37 38 39 39 39 40 40 41 40 40 40 38
18 19 20 20 20 21 22 22 23 23 23 24 25 25 26 26 26 27 28 29 31 32 33 34 36 37 39 39 40 40 40 40 41 42 42 41 41 40
20 20 21 21 21 22 23 23 24 24 25 25 26 27 27 27 27 28 28 29 30 31 33 34 35 36 38 40 41 42 43 42 42 42 43 44 43 42
21 22 22 22 23 23 24 24 25 26 26 27 27 28 28 28 28 29 29 30 30 31 32 34 35 36 38 39 41 42 43 44 44 44 44 44 45 45
23 23 23 24 25 25 26 26 26 27 28 28 28 29 29 29 29 30 30 31 32 33 33 34 35 37 38 39 40 42 43 45 45 45 45 45 46 46
24 25 25 26 26 27 27 28 28 28 29 29 30 30 30 31 31 31 31 32 32 34 34 35 35 36 38 39 40 41 43 44 46 47 47 47 47 47
26 26 27 27 28 29 29 29 30 30 30 31 31 32 32 32 32 33 33 33 33 34 35 35 36 36 37 39 40 41 42 43 45 46 47 47 48 47
27 28 28 29 29 30 30 31 31 32 32 33 33 33 34 34 34 34 34 34 34 34 35 35 37 37 38 40 40 41 42 43 44 45 47 47 48 48
29 29 30 30 31 31 32 32 32 33 34 34 34 34 35 35 35 35 35 35 34 35 36 36 36 37 38 39 41 42 42 43 44 44 45 46 47 48
30 31 31 32 33 33 34 34 34 35 35 35 35 35 35 36 36 37 37 36 35 35 37 37 36 37 37 38 39 41 41 42 43 44 45 46 47 47
31 32 33 34 34 35 35 35 35 36 36 36 36 37 37 37 37 37 37 37 36 35 36 37 36 36 36 36 38 39 40 41 42 43 44 45 46 47
33 34 34 35 36 36 37 36 37 37 37 37 38 38 39 38 37 37 37 38 37 36 36 36 35 35 35 34 36 38 39 39 40 42 43 44 45 46
35 36 36 37 38 38 38 39 39 39 39 39 39 40 39 38 38 38 37 37 37 36 36 36 36 35 35 34 34 36 38 39 39 40 41 42 43 44
36 38 38 39 39 39 39 40 41 41 41 41 40 40 40 39 38 38 37 36 35 35 35 35 36 35 35 35 34 35 36 37 39 39 40 41 42 43
39 40 40 40 41 41 41 42 42 43 43 42 41 40 40 39 38 37 36 35 35 35 35 35 36 36 35 35 34 34 35 36 37 38 39 40 41 42
42 42 42 42 42 43 43 43 43 43 43 42 40 39 39 38 37 36 35 35 35 34 34 34 35 35 35 34 34 34 34 35 36 37 38 38 39 40
44 44 44 44 44 44 44 44 44 44 43 41 40 39 38 38 37 36 35 34 34 33 33 33 33 34 33 32 33 33 34 34 35 37 37 37 38 39
46 46 46 46 46 45 45 45 45 44 43 42 40 39 38 37 36 36 35 34 34 34 33 33 33 33 32 31 30 32 32 33 34 35 36 36 37 38
47 47 47 46 46 46 45 45 45 44 42 41 40 39 38 37 36 36 35 33 33 32 32 31 31 32 31 30 29 29 30 31 33 34 34 35 36 37
48 48 48 47 47 46 45 44 43 42 41 40 39 38 37 36 35 35 33 32 31 31 30 30 29 29 29 28 27 27 28 29 30 31 32 34 34 35
50 50 49 48 46 45 44 43 42 41 40 39 37 36 36 35 34 33 32 31 31 31 29 28 28 27 26 26 25 25 26 28 29 30 30 31 32 32
50 49 48 46 45 44 43 41 40 39 38 36 35 35 34 33 33 33 32 31 30 29 28 27 26 25 24 24 23 24 24 26 27 28 28 29 30 30
Wind_Direction
328 325 324 321 317 316 313 311 309 306 303 301 298 294 291 287 282 278 274 271 269 266 264 262 260 258 257 253 250 249 248 248 247 245 245 245 244 243
327 325 324 322 319 317 315 313 311 309 306 304 302 300 296 292 286 281 277 275 272 269 266 264 261 259 257 255 252 250 248 248 247 245 244 245 244 243
324 323 322 321 319 317 316 315 313 311 308 306 304 302 300 296 290 284 280 278 275 272 269 266 263 261 258 256 254 252 250 249 248 246 244 244 243 243
322 321 321 320 319 318 316 315 314 312 310 308 306 304 301 298 294 288 283 280 277 274 271 268 265 263 260 258 255 253 251 251 249 247 245 244 243 242
320 319 318 318 317 316 315 314 312 311 310 309 307 305 302 299 295 291 286 282 279 275 273 270 267 265 262 259 256 254 252 251 249 247 246 245 243 243
317 317 316 316 315 314 314 313 312 311 310 309 307 305 303 300 297 293 289 285 282 278 275 272 269 266 264 261 258 255 252 250 249 248 246 245 244 243
315 315 315 314 313 313 312 312 311 310 309 308 307 305 302 300 298 295 292 288 284 281 277 274 271 267 264 262 260 258 255 251 250 248 246 246 245 244
313 314 314 313 313 313 312 312 311 309 309 307 306 304 302 300 298 297 294 291 287 284 280 276 273 270 266 263 261 259 256 254 251 249 247 246 245 244
312 312 313 313 312 311 311 311 310 309 308 307 306 304 302 300 299 297 295 293 290 286 283 280 276 272 268 264 261 259 257 254 252 250 248 247 245 243
311 311 312 313 312 312 311 310 309 308 308 307 306 305 303 300 298 297 295 293 291 289 286 283 279 274 270 266 262 259 257 255 252 250 248 247 246 244
309 310 311 311 312 311 311 310 309 308 308 307 306 305 304 301 299 297 296 293 291 290 288 285 281 276 271 266 263 259 256 254 252 250 248 247 246 244
308 309 309 310 311 311 310 310 309 308 308 307 307 306 304 302 299 297 296 294 292 289 287 285 282 277 272 267 263 259 256 254 252 250 248 247 246 245
308 308 309 309 310 311 310 310 309 308 307 306 306 306 305 302 300 297 295 294 292 290 286 284 282 279 275 268 264 260 256 254 251 249 248 247 246 245
308 308 309 309 309 310 310 309 309 308 307 306 305 305 304 302 299 297 295 293 291 289 286 283 281 279 276 271 265 261 257 254 251 249 247 247 246 245
307 307 308 308 308 308 308 307 307 307 306 306 305 305 303 302 299 297 295 293 291 288 286 284 281 279 276 272 267 262 258 254 252 249 247 246 245 244
305 306 307 307 307 307 307 306 306 306 305 305 305 304 302 300 299 297 294 293 292 289 286 283 281 279 276 272 268 263 259 254 251 249 248 246 245 244
306 306 306 306 306 306 305 305 305 304 304 304 303 302 300 298 297 296 294 293 292 290 287 284 281 279 276 273 269 264 258 254 250 250 249 247 246 244
305 306 305 305 305 305 305 304 304 304 303 302 301 300 298 296 295 294 294 293 293 291 289 285 281 279 277 273 269 264 259 254 251 250 249 248 246 245
305 305 305 304 304 304 304 303 303 302 301 300 300 299 298 296 294 293 293 293 292 290 289 285 282 279 277 274 269 264 259 255 252 250 249 248 246 244
305 305 304 304 304 303 303 302 302 301 299 298 297 297 297 295 293 293 293 292 291 290 289 287 283 280 278 275 269 263 259 256 253 251 249 248 247 245
304 304 304 304 303 303 302 301 301 300 298 297 296 295 293 292 291 290 291 290 290 290 288 287 285 282 278 274 269 263 258 256 254 251 249 249 248 246
304 304 304 304 303 302 302 301 300 298 296 296 295 293 292 290 289 289 289 288 288 288 287 286 284 281 278 273 269 264 259 258 255 253 251 248 247 246
303 303 303 302 301 301 300 300 299 297 296 294 293 291 289 288 287 287 287 286 286 285 285 285 283 281 278 274 270 266 262 258 256 253 251 249 247 246
Height
5850 5848 5847 5845 5843 5841 5839 5837 5836 5834 5832 5830 5829 5828 5827 5826 5825 5825 5825 5826 5826 5827 5828 5830 5832 5834 5835 5838 5840 5843 5846 5849 5852 5855 5859 5862 5866 5869
5848 5846 5843 5841 5839 5837 5835 5833 5831 5829 5827 5825 5823 5822 5820 5819 5818 5817 5817 5817 5817 5818 5819 5820 5822 5824 5826 5828 5830 5833 5836 5839 5842 5846 5849 5853 5856 5860
5844 5842 5840 5838 5835 5833 5830 5828 5826 5824 5822 5819 5817 5815 5814 5812 5810 5809 5809 5809 5809 5809 5809 5810 5812 5813 5815 5817 5820 5822 5825 5828 5832 5835 5839 5843 5846 5851
5841 5838 5836 5833 5831 5829 5826 5823 5821 5818 5816 5814 5811 5809 5807 5805 5803 5802 5801 5800 5800 5800 5800 5800 5801 5803 5804 5806 5809 5811 5814 5817 5821 5824 5828 5832 5836 5840
5837 5834 5832 5829 5827 5824 5821 5818 5816 5813 5810 5807 5805 5802 5800 5797 5795 5794 5792 5791 5791 5790 5790 5791 5791 5792 5793 5795 5797 5800 5803 5806 5810 5813 5817 5820 5825 5829
5832 5830 5827 5824 5821 5819 5816 5813 5810 5807 5804 5801 5798 5795 5792 5789 5787 5785 5784 5782 5781 5780 5780 5780 5780 5781 5782 5783 5785 5787 5790 5793 5797 5801 5805 5809 5813 5817
5827 5824 5822 5819 5816 5813 5810 5806 5803 5800 5797 5794 5791 5788 5785 5782 5779 5777 5775 5773 5771 5770 5769 5769 5769 5770 5770 5771 5773 5775 5777 5780 5784 5788 5792 5796 5800 5804
5822 5819 5816 5813 5809 5806 5803 5799 5796 5793 5789 5786 5783 5779 5776 5773 5770 5767 5765 5763 5761 5759 5758 5758 5757 5758 5758 5760 5761 5762 5765 5767 5771 5774 5778 5783 5787 5792
5815 5812 5809 5806 5803 5800 5796 5792 5788 5784 5781 5778 5774 5770 5767 5763 5760 5757 5755 5752 5750 5748 5746 5746 5745 5745 5746 5747 5748 5750 5752 5754 5757 5761 5765 5769 5774 5778
5809 5805 5802 5799 5795 5792 5788 5785 5780 5776 5772 5769 5765 5761 5757 5753 5750 5747 5744 5742 5740 5737 5734 5734 5733 5733 5733 5733 5734 5736 5738 5741 5744 5747 5751 5755 5760 5764
5801 5798 5795 5791 5787 5784 5780 5776 5772 5767 5763 5759 5755 5751 5747 5743 5739 5736 5733 5731 5729 5726 5723 5721 5721 5720 5720 5720 5721 5722 5725 5727 5730 5733 5737 5742 5746 5750
5794 5790 5787 5783 5779 5775 5771 5767 5763 5758 5754 5750 5745 5741 5737 5733 5729 5725 5722 5719 5717 5715 5712 5709 5708 5707 5707 5707 5708 5709 5711 5714 5717 5720 5724 5728 5732 5736
5785 5782 5778 5774 5770 5766 5761 5757 5753 5748 5744 5740 5735 5731 5726 5722 5718 5714 5710 5707 5704 5703 5700 5697 5696 5695 5694 5695 5695 5696 5698 5701 5704 5707 5710 5714 5718 5723
5776 5772 5768 5764 5760 5756 5751 5747 5742 5738 5733 5729 5725 5720 5716 5711 5707 5703 5699 5696 5693 5690 5688 5685 5684 5683 5682 5683 5684 5684 5686 5688 5691 5694 5698 5701 5705 5710
5767 5763 5759 5754 5750 5746 5741 5736 5731 5727 5722 5717 5713 5709 5704 5700 5696 5692 5688 5685 5682 5679 5676 5674 5672 5671 5670 5671 5672 5673 5674 5676 5678 5682 5685 5689 5693 5697
5756 5753 5748 5744 5739 5735 5730 5725 5720 5715 5710 5705 5701 5697 5692 5688 5684 5680 5677 5674 5671 5669 5666 5663 5661 5659 5659 5659 5659 5661 5662 5664 5667 5669 5673 5676 5680 5684
5744 5741 5736 5732 5728 5723 5718 5713 5708 5703 5698 5694 5689 5685 5681 5677 5673 5669 5666 5663 5660 5658 5655 5653 5650 5648 5647 5647 5648 5648 5650 5652 5655 5657 5660 5664 5668 5672
5732 5728 5724 5719 5715 5710 5705 5700 5695 5690 5685 5681 5677 5673 5669 5665 5661 5658 5655 5652 5649 5647 5644 5642 5640 5638 5637 5637 5637 5637 5638 5640 5643 5645 5648 5652 5657 5660
5720 5715 5711 5706 5701 5697 5692 5687 5682 5677 5672 5668 5665 5661 5657 5653 5650 5647 5644 5641 5639 5636 5634 5631 5629 5627 5627 5627 5627 5626 5627 5629 5631 5634 5637 5641 5645 5648
5707 5702 5698 5693 5688 5683 5678 5673 5668 5663 5659 5656 5652 5649 5645 5642 5639 5636 5633 5630 5628 5626 5623 5621 5619 5617 5616 5617 5617 5617 5617 5619 5621 5624 5626 5629 5633 5637
5694 5689 5683 5678 5673 5668 5664 5659 5654 5650 5646 5643 5640 5637 5634 5631 5628 5625 5623 5620 5618 5616 5614 5612 5610 5608 5607 5606 5607 5608 5608 5609 5611 5613 5616 5619 5622 5626
5679 5674 5669 5663 5659 5654 5649 5645 5641 5637 5634 5631 5627 5624 5622 5619 5617 5614 5612 5610 5608 5606 5604 5603 5601 5599 5598 5598 5598 5599 5600 5600 5602 5604 5607 5610 5612 5616
5664 5659 5654 5649 5644 5640 5636 5632 5628 5624 5621 5619 5616 5613 5611 5608 5606 5604 5602 5600 5598 5596 5595 5594 5592 5591 5590 5590 5590 5591 5591 5592 5594 5596 5598 5600 5603 5606